Date String (YYYY-MM-DD hh:mm:ss) UTC,Instrument flags,absolute air pressure of the measurement (hPa),sample flow rate (lpm),inlet stack bypass flow (lpm),air temperature of the measurement (°C),ambient temperature measured by the external sensor (°C),aerosol sample conditioner tube jacket temperature (°C),OPC LED temperature (°C),internal box temperature (°C),relative humidity of the measurement (%),span deviation,mass concentration of particles derived from Lorenz-Mie calculation of OPC scattering (μg/m³),mass concentration of particles derived from Lorenz-Mie calculation of OPC scattering (μg/m³),mass concentration of particles derived from Lorenz-Mie calculation of OPC scattering (μg/m³)
DateTimeUTC,F1_M11,P_M11,Q1_M11,Q2_M11,T1_M11,T2_M11,T3_M11,T4_M11,T5_M11,U1_M11,ZSPAN_M11,X2_M11,X0_M11,X1_M11
2023-11-07 22:00:00,SystemResetWarning,0820.2,5.00,000.00,027.7,026.1,000.0,036.0,029.2,10.3,0000.0,0004.83,0021.15,0003.30
2023-11-07 22:01:00,SystemResetWarning,0820.2,5.00,000.00,027.7,026.3,000.0,036.0,029.3,10.3,0000.0,0004.85,0019.76,0003.31
2023-11-07 22:02:00,SystemResetWarning,0820.0,5.00,000.00,027.8,026.5,000.0,036.0,029.4,10.2,0000.0,0004.87,0019.25,0003.31
2023-11-07 22:03:00,SystemResetWarning,0820.0,5.01,000.00,027.8,026.7,000.0,036.0,029.4,10.3,0000.0,0004.91,0020.17,0003.31
2023-11-07 22:04:00,SystemResetWarning,0820.1,5.00,000.00,027.9,026.9,000.0,036.0,029.5,10.4,0000.0,0004.88,0019.44,0003.30
2023-11-07 22:05:00,SystemResetWarning,0820.2,5.01,000.00,027.9,027.0,000.0,036.1,029.6,10.2,0000.0,0004.90,0018.96,0003.31
2023-11-07 22:06:00,SystemResetWarning,0820.3,5.00,000.00,028.0,027.1,000.0,036.1,029.6,10.1,0000.0,0004.87,0018.77,0003.30
2023-11-07 22:07:00,SystemResetWarning,0820.3,5.00,000.00,028.0,027.2,000.0,036.1,029.7,10.1,0000.0,0004.94,0018.53,0003.29
2023-11-07 22:08:00,SystemResetWarning,0820.7,5.00,000.00,028.1,027.3,000.0,036.1,029.8,10.0,0000.0,0004.92,0019.33,0003.28
2023-11-07 22:09:00,SystemResetWarning,0820.6,5.00,000.00,028.1,027.4,000.0,036.2,029.8,10.0,0000.0,0004.95,0020.62,0003.28
2023-11-07 22:10:00,SystemResetWarning,0820.5,5.00,000.00,028.2,027.5,000.0,036.2,029.9,10.1,0000.0,0004.97,0021.62,0003.27
2023-11-07 22:11:00,SystemResetWarning,0820.4,5.00,000.00,028.2,027.5,000.0,036.3,029.9,10.1,0000.0,0005.01,0022.06,0003.27
2023-11-07 22:12:00,SystemResetWarning,0820.3,4.99,000.00,028.3,027.2,000.0,036.3,029.9,10.1,0000.0,0005.00,0022.36,0003.27
2023-11-07 22:13:00,SystemResetWarning,0820.3,4.99,000.00,028.2,025.1,000.0,036.3,029.6,9.9,0000.0,0005.05,0022.05,0003.27
2023-11-07 22:14:00,SystemResetWarning,0820.3,5.01,000.00,028.1,023.7,000.0,036.2,029.3,10.0,0000.0,0005.07,0022.25,0003.26
2023-11-07 22:15:00,SystemResetWarning,0820.4,5.01,000.00,028.0,023.8,000.0,036.2,029.1,10.1,0000.0,0005.06,0022.56,0003.26
2023-11-07 22:16:00,SystemResetWarning,0820.9,4.98,000.00,027.8,024.2,000.0,036.1,028.8,10.2,0000.0,0005.02,0022.13,0003.24
2023-11-07 22:17:00,SystemResetWarning,0820.8,5.01,000.00,027.7,024.7,000.0,036.1,028.8,10.3,0000.0,0005.04,0023.26,0003.22
2023-11-07 22:18:00,SystemResetWarning,0820.8,5.02,000.00,027.7,025.2,000.0,036.1,029.0,10.4,0000.0,0005.00,0023.64,0003.22
2023-11-07 22:19:00,SystemResetWarning,0820.7,4.99,000.00,027.7,025.6,000.0,036.0,029.1,10.2,0000.0,0004.98,0023.73,0003.21
2023-11-07 22:20:00,SystemResetWarning,0820.3,5.00,000.00,027.7,025.9,000.0,036.0,029.2,10.2,0000.0,0004.89,0022.22,0003.18
2023-11-07 22:21:00,SystemResetWarning,0820.3,5.00,000.00,027.8,026.2,000.0,036.0,029.3,10.1,0000.0,0004.88,0021.39,0003.17
2023-11-07 22:22:00,SystemResetWarning,0820.3,5.00,000.00,027.8,026.4,000.0,036.0,029.4,10.2,0000.0,0004.82,0021.07,0003.14
2023-11-07 22:23:00,SystemResetWarning,0820.2,4.99,000.00,027.8,026.6,000.0,036.0,029.5,10.1,0000.0,0004.77,0021.59,0003.13
2023-11-07 22:24:00,SystemResetWarning,0820.3,5.00,000.00,027.9,026.8,000.0,036.1,029.5,10.3,0000.0,0004.70,0021.90,0003.11
2023-11-07 22:25:00,SystemResetWarning,0820.3,5.00,000.00,027.9,026.9,000.0,036.1,029.6,10.2,0000.0,0004.64,0020.65,0003.10
2023-11-07 22:26:00,SystemResetWarning,0820.4,5.00,000.00,028.0,027.1,000.0,036.1,029.7,10.3,0000.0,0004.64,0020.73,0003.08
2023-11-07 22:27:00,SystemResetWarning,0820.5,5.00,000.00,028.0,027.2,000.0,036.1,029.7,10.1,0000.0,0004.66,0020.62,0003.06
2023-11-07 22:28:00,SystemResetWarning,0820.7,5.00,000.00,028.1,027.3,000.0,036.2,029.8,10.1,0000.0,0004.61,0019.53,0003.05
2023-11-07 22:29:00,SystemResetWarning,0820.6,5.00,000.00,028.1,027.4,000.0,036.2,029.8,10.2,0000.0,0004.55,0019.52,0003.02
2023-11-07 22:30:00,SystemResetWarning,0820.3,5.01,000.00,028.2,027.2,000.0,036.2,029.9,10.2,0000.0,0004.55,0019.87,0002.96
2023-11-07 22:31:00,SystemResetWarning,0820.6,4.99,000.00,028.2,025.4,000.0,036.2,029.7,10.4,0000.0,0004.53,0020.39,0002.92
2023-11-07 22:32:00,SystemResetWarning,0820.6,5.00,000.00,028.0,023.8,000.0,036.2,029.3,10.4,0000.0,0004.43,0020.21,0002.88
2023-11-07 22:33:00,SystemResetWarning,0820.8,5.01,000.00,027.9,023.8,000.0,036.1,029.0,10.6,0000.0,0004.40,0019.82,0002.85
2023-11-07 22:34:00,SystemResetWarning,0820.8,5.01,000.00,027.7,024.2,000.0,036.1,028.7,10.5,0000.0,0004.47,0019.22,0002.81
2023-11-07 22:35:00,SystemResetWarning,0820.6,4.99,000.00,027.7,024.6,000.0,036.0,028.7,10.6,0000.0,0004.47,0018.67,0002.76
2023-11-07 22:36:00,SystemResetWarning,0820.5,4.99,000.00,027.6,025.1,000.0,036.0,028.9,10.9,0000.0,0004.46,0018.39,0002.75
2023-11-07 22:37:00,SystemResetWarning,0820.6,5.00,000.00,027.7,025.5,000.0,036.0,029.0,11.0,0000.0,0004.52,0018.03,0002.75
2023-11-07 22:38:00,SystemResetWarning,0820.6,5.01,000.00,027.7,025.8,000.0,036.0,029.1,10.9,0000.0,0004.51,0018.09,0002.75
2023-11-07 22:39:00,SystemResetWarning,0820.6,5.01,000.00,027.7,026.1,000.0,036.0,029.2,10.8,0000.0,0004.54,0018.42,0002.73
2023-11-07 22:40:00,SystemResetWarning,0820.6,5.00,000.00,027.7,026.3,000.0,036.0,029.3,10.7,0000.0,0004.54,0017.63,0002.73
2023-11-07 22:41:00,SystemResetWarning,0820.6,4.99,000.00,027.8,026.6,000.0,036.0,029.4,10.7,0000.0,0004.52,0017.34,0002.74
2023-11-07 22:42:00,SystemResetWarning,0820.7,5.00,000.00,027.8,026.7,000.0,036.0,029.5,10.7,0000.0,0004.55,0016.78,0002.75
2023-11-07 22:43:00,SystemResetWarning,0820.7,4.99,000.00,027.9,026.9,000.0,036.0,029.6,10.5,0000.0,0004.59,0017.48,0002.75
2023-11-07 22:44:00,SystemResetWarning,0820.8,5.00,000.00,027.9,027.0,000.0,036.1,029.6,10.5,0000.0,0004.57,0017.41,0002.75
2023-11-07 22:45:00,SystemResetWarning,0820.8,5.00,000.00,028.0,027.1,000.0,036.1,029.7,10.5,0000.0,0004.56,0017.48,0002.74
2023-11-07 22:46:00,SystemResetWarning,0820.8,5.00,000.00,028.1,027.0,000.0,036.1,029.7,10.5,0000.0,0004.56,0018.80,0002.76
2023-11-07 22:47:00,SystemResetWarning,0820.8,4.99,000.00,028.0,025.2,000.0,036.1,029.5,10.5,0000.0,0004.57,0019.87,0002.75
2023-11-07 22:48:00,SystemResetWarning,0820.7,5.01,000.00,027.9,023.6,000.0,036.0,029.1,10.5,0000.0,0004.51,0020.78,0002.73
2023-11-07 22:49:00,SystemResetWarning,0820.7,5.01,000.00,027.8,023.6,000.0,036.0,028.9,10.6,0000.0,0004.47,0020.03,0002.72
2023-11-07 22:50:00,SystemResetWarning,0820.7,5.00,000.00,027.6,024.0,000.0,036.0,028.6,10.6,0000.0,0004.46,0020.00,0002.73
2023-11-07 22:51:00,SystemResetWarning,0820.6,4.99,000.00,027.5,024.5,000.0,035.9,028.6,10.6,0000.0,0004.48,0020.41,0002.70
2023-11-07 22:52:00,SystemResetWarning,0820.7,5.00,000.00,027.5,025.0,000.0,035.9,028.8,10.6,0000.0,0004.43,0020.65,0002.68
2023-11-07 22:53:00,SystemResetWarning,0820.7,5.00,000.00,027.5,025.4,000.0,035.9,028.9,10.7,0000.0,0004.38,0022.00,0002.67
2023-11-07 22:54:00,SystemResetWarning,0820.7,5.01,000.00,027.6,025.7,000.0,035.9,029.0,10.7,0000.0,0004.40,0023.30,0002.67
2023-11-07 22:55:00,SystemResetWarning,0820.7,5.01,000.00,027.6,026.0,000.0,035.9,029.2,10.6,0000.0,0004.41,0023.69,0002.66
2023-11-07 22:56:00,SystemResetWarning,0820.7,5.00,000.00,027.7,026.3,000.0,035.9,029.3,10.5,0000.0,0004.36,0022.68,0002.67
2023-11-07 22:57:00,SystemResetWarning,0820.7,5.00,000.00,027.7,026.5,000.0,035.9,029.4,10.6,0000.0,0004.38,0021.59,0002.66
2023-11-07 22:58:00,SystemResetWarning,0820.6,5.00,000.00,027.8,026.7,000.0,035.9,029.4,10.6,0000.0,0004.39,0020.57,0002.65
2023-11-07 22:59:00,SystemResetWarning,0820.7,5.00,000.00,027.8,026.8,000.0,035.9,029.5,10.7,0000.0,0004.42,0019.84,0002.66
